Flag for Chile Weather past 2 weeks in Santiago, Chile

Now
50 °F

Clear.


Feels Like: 50 °F
Forecast: 52 / 75 °F
Wind: 2 mph from Northwest

Location: Pudahuel

Current Time: Aug 30, 2015 at 2:58:58 AM

Latest Report: Aug 30, 2015 at 2:00 AM


Visibility: 4 mi

Pressure: 29.98 "Hg (27.97 "Hg at 576m altitude)

Humidity: 76%

Dew point: 43 °F

Location of SantiagoLocation

Historic Weather in Santiago — Graph

°F

Santiago temperature yesterday

Maximum temperature yesterday: 75 °F (at 4:00 PM)
Minimum temperature yesterday: 43 °F (at 6:00 AM)
Average temperature yesterday: 58 °F

Past Weeks' High & Low Weather Summary

 TemperatureHumidityPressure
High75 °F (Aug 28, 5:00 PM)100% (Aug 16, 8:00 AM)32.43 "Hg (Aug 16, 8:00 AM)
Low36 °F (Aug 18, 9:00 AM)25% (Aug 28, 5:00 PM)29.86 "Hg (Aug 24, 4:00 PM)
Average54 °F72%30.05 "Hg
* Reported Aug 15 2:00 AM — Aug 30 2:00 AM, Santiago, Weather by CustomWeather, © 2015

Note: Actual official high and low records may vary slightly from our data, if they occured in-between our weather recording intervals... More about our weather records

Advertising

Santiago weather history for previous 24 hours

 ConditionsComfort  
Time TempWeatherWind HumidityBarometerVisibility
2:00 AM
Sun, Aug 30
50 °FClear.2 mph76%29.98 "Hg4 mi
1:00 AM54 °FClear.3 mph67%30.01 "Hg4 mi
12:00 AM55 °FClear.2 mph67%30.01 "Hg4 mi
11:00 PM
Sat, Aug 29
57 °FPassing clouds.3 mph63%30.01 "HgN/A
10:00 PM61 °FClear.3 mph55%30.01 "Hg10 mi
9:00 PM64 °FClear.No wind46%30.01 "Hg10 mi
8:00 PM66 °FPassing clouds.5 mph49%29.98 "HgN/A
7:00 PM70 °FClear.9 mph46%29.98 "Hg10 mi
6:00 PM73 °FPassing clouds.5 mph38%29.95 "HgN/A
5:00 PM75 °FSunny.8 mph39%29.98 "Hg10 mi
4:00 PM75 °FPassing clouds.8 mph29%29.98 "HgN/A
3:00 PM73 °FScattered clouds.2 mph27%30.01 "HgN/A
2:00 PM70 °FPassing clouds.3 mph31%30.01 "HgN/A
1:00 PM66 °FPartly sunny.3 mph32%30.04 "HgN/A
12:00 PM61 °FPartly sunny.2 mph42%30.04 "HgN/A
11:00 AM57 °FPartly sunny.1 mph55%30.07 "HgN/A
10:00 AM52 °FBroken clouds.3 mph67%30.04 "HgN/A
9:00 AM45 °FBroken clouds.3 mph76%30.07 "Hg5 mi
8:00 AM43 °FScattered clouds.3 mph81%30.04 "Hg5 mi
7:00 AM43 °FPassing clouds.3 mph81%30.01 "HgN/A
6:00 AM43 °FPassing clouds.2 mph81%30.01 "HgN/A
4:00 AM45 °FPassing clouds.5 mph81%30.04 "HgN/A
3:00 AM46 °FClear.2 mph82%30.07 "Hg10 mi
2:00 AM48 °FClear.1 mph76%30.07 "Hg5 mi
Weather by CustomWeather, © 2015

See weather overviewHow to use our weather pages